SCP
0 0 0 0 0 0 0 0 0 0 0 0 0 0 0 0 -0 -0 -0 -0 -0 -0 -0 -0 0 0 0 0 0 0 0 0 -0 -0 -0 0 0 0 0 0 0 0 0 0
0 0 0 0 0 0 0 0 0 0 0 0 0 0 0 0 0 0 0 0 0 0 0 0 0 0 0 0 0 0 0 0 0 -0 -0 0 0 0 0 0 0 0 0 0
0 0 0 0 0 0 0 0 0 0 0 0 0 0 0 0 0 0 0 0 0 0 0 0 0 0 0 0 0 0 0 0 0 0 0 0 0 0 0 0 0 0 0 0
0 0 0 0 0 0 0 0 0 0 0 0 0 0 0 0 0 0 0 0 0 0 0 0 0 0 0 0 0 0 0 0 0 0 0 0 0 0 0 0 0 0 0 0
0 0 0 0 0 0 0 0 0 0 0 0 0 0 0 0 0 0 0 0 0 0 0 0 0 0 0 0 0 0 0 0 0 0 0 0 0 0 0 0 0 0 0 0
0 0 0 0 0 0 0 0 0 0 0 0 0 0 0 0 0 0 0 0 0 0 0 0 0 0 0 0 0 0 0 0 0 0 0 0 0 0 0 0 0 0 0 -0
0 0 0 0 0 0 0 0 0 0 0 0 0 0 0 0 0 0 0 0 0 0 0 0 0 0 0 0 0 0 0 0 0 0 0 0 0 0 0 0 0 0 0 0
0 0 0 0 0 0 0 0 0 0 0 0 0 0 0 0 0 0 0 0 0 0 0 0 0 0 -0 -0 0 0 0 0 0 0 0 0 0 0 0 0 0 0 0 0
0 0 0 0 0 0 0 0 0 0 0 0 0 0 0 0 0 0 0 0 0 0 0 0 0 -0 0 0 0 0 0 0 0 0 0 0 0 0 0 0 0 0 0 0
0 0 0 0 0 0 0 0 0 0 0 0 0 0 0 0 0 0 0 0 0 0 0 0 0 0 0 0 0 0 0 0 0 0 0 0 0 0 0 0 0 0 0 0
0 0 0 0 0 0 0 0 0 0 0 0 0 0 0 0 0 0 0 0 0 0 0 0 0 0 0 0 0 0 0 0 0 0 0 0 0 0 0 0 0 0 0 0
0 0 0 0 0 0 0 0 0 0 0 0 0 0 0 0 0 0 0 0 0 0 0 0 0 0 0 0 0 0 0 0 0 0 0 0 0 0 0 0 0 0 0 0
0 0 0 0 0 0 0 0 0 0 0 0 0 0 0 0 0 0 0 0 0 0 0 0 0 0 0 0 0 0 0 0 0 0 0 0 0 0 0 0 0 0 0 0
0 0 0 0 0 0 0 0 0 0 0 0 0 0 0 0 0 0 0 0 0 0 0 0 0 0 0 0 0 0 0 0 0 0 0 0 0 0 0 0 0 0 0 0
0 0 0 0 0 0 0 0 0 0 0 0 0 0 0 0 0 0 0 0 0 0 0 0 0 0 0 0 0 0 0 0 0 0 0 0 0 0 0 0 0 0 0 0
0 0 0 0 0 0 0 0 0 0 0 0 0 0 0 0 0 0 0 0 0 0 0 0 0 0 0 0 0 0 0 0 0 0 0 0 0 0 0 0 0 0 0 0
0 0 0 0 0 0 0 0 0 0 0 0 0 0 0 0 0 0 0 0 0 0 0 0 0 0 0 0 0 0 0 0 0 0 0 0 0 0 0 0 0 0 0 0
0 0 0 0 0 0 0 0 0 0 0 0 0 0 0 0 0 0 0 0 0 0 0 0 0 0 0 0 0 0 0 0 0 0 0 0 0 0 0 0 0 0 0 0
0 0 0 0 0 0 0 0 0 0 0 0 0 0 0 0 0 0 0 0 0 0 0 0 0 0 0 0 0 0 0 0 0 0 0 0 0 0 0 0 0 0 0 0
0 0 0 0 0 0 0 0 0 0 0 0 0 0 0 0 0 0 0 0 0 0 0 0 0 0 0 0 0 0 0 0 0 0 0 0 0 0 0 0 0 0 0 0
0 0 0 0 0 0 0 0 0 0 0 0 0 0 0 0 0 0 0 0 0 0 0 0 0 0 0 0 0 0 0 0 0 0 0 0 0 0 0 0 0 0 0 0
0 0 0 0 0 0 0 0 0 0 0 0 0 0 0 0 0 0 0 0 0 0 0 0 0 0 0 0 0 0 0 0 0 0 0 0 0 0 0 0 0 0 0 0
0 0 0 0 0 0 0 0 0 0 0 0 0 0 0 0 0 0 0 0 0 0 0 0 0 0 0 0 0 0 0 0 0 0 0 0 0 0 0 0 0 0 0 0
0 0 0 0 0 0 0 0 0 0 0 0 0 0 0 0 0 0 0 0 0 0 0 0 0 0 0 0 0 0 0 0 0 0 0 0 0 0 0 0 0 0 0 0
0 0 0 0 0 0 0 0 0 0 0 0 0 0 0 0 0 0 0 0 0 0 0 0 0 0 0 0 0 0 0 0 0 0 0 0 0 0 0 0 0 0 0 0
0 0 0 0 0 0 0 0 0 0 0 0 0 0 0 0 0 0 0 0 0 0 0 0 0 0 0 0 0 0 0 0 0 0 0 0 0 0 0 0 0 0 0 0
0 0 0 0 0 0 0 0 0 0 0 0 0 0 0 0 0 0 0 0 0 0 0 0 0 0 0 0 0 0 0 0 0 0 0 0 0 0 0 0 0 0 0 0
Wind_Speed_500mb
7 8 5 9 14 20 21 30 17 16 18 37 23 15 26 21 21 18 15 15 19 22 25 28 32 37 43 48 53 55 56 58 61 63 63 63 61 58 55 56 58 59 61 63
5 4 9 3 6 13 5 7 10 10 7 11 11 25 21 18 13 14 15 18 21 26 33 42 47 48 47 49 52 57 60 63 66 69 71 71 72 72 70 65 63 64 63 64
8 3 8 10 16 14 8 6 13 13 12 17 8 15 16 16 11 8 10 16 22 28 31 34 38 43 46 50 54 57 61 64 66 70 73 75 78 78 76 75 74 72 68 68
5 3 8 7 5 8 13 9 14 6 12 20 21 18 15 14 15 8 8 12 17 22 24 29 35 40 44 48 53 58 63 67 71 76 78 80 82 83 82 82 78 76 77 75
8 5 8 5 9 13 14 14 17 11 15 19 19 10 8 22 14 7 4 11 17 21 26 30 38 42 46 48 52 58 62 65 69 74 78 80 81 82 82 84 83 79 75 76
7 7 12 7 2 13 11 10 12 25 20 31 28 6 7 39 10 1 10 18 24 29 34 40 46 54 57 59 61 64 67 70 72 74 77 80 81 81 78 76 79 80 84 80
7 6 14 13 12 20 12 13 13 18 30 34 10 9 21 28 6 14 21 27 34 40 46 52 57 62 63 64 65 69 72 75 75 77 79 80 82 80 78 77 78 78 79 77
6 5 17 31 12 20 10 15 25 22 19 16 13 12 18 17 15 21 28 36 44 53 59 61 61 65 70 71 71 74 75 77 76 76 78 78 78 79 80 82 82 81 79 77
15 11 2 41 8 18 23 37 27 22 16 13 9 5 11 20 28 34 38 45 52 60 69 71 69 68 72 71 74 77 79 80 78 78 76 75 75 78 81 80 78 80 78 78
6 4 12 23 24 30 33 27 23 22 22 13 13 21 31 39 45 50 52 57 63 69 74 79 74 72 71 75 78 82 85 85 82 82 81 79 75 73 76 76 75 73 70 68
1 6 20 15 23 33 28 30 27 18 14 20 29 36 43 47 48 53 59 63 67 71 76 79 80 83 84 82 84 88 89 87 86 82 80 81 82 75 71 67 64 63 56 49
9 35 16 30 40 39 37 30 17 21 28 32 34 37 41 46 50 55 61 65 71 76 79 79 79 80 80 79 83 85 88 87 84 82 80 79 78 75 60 57 49 36 33 30
15 30 28 22 39 53 44 29 28 27 28 29 31 35 42 49 54 60 67 71 74 76 74 77 80 80 74 75 79 81 81 82 83 81 79 72 65 57 57 43 31 26 24 22
30 36 27 45 45 52 36 29 27 27 28 31 35 39 45 53 61 65 68 73 77 81 82 81 81 79 75 74 75 77 77 76 75 75 68 60 49 42 40 36 25 21 19 12
44 48 44 47 42 34 34 31 35 35 35 35 38 44 51 56 61 67 71 77 82 82 79 77 76 71 68 66 67 68 68 69 64 61 52 41 35 34 32 27 24 22 16 8
53 51 44 40 39 41 41 43 44 38 36 39 44 49 51 56 60 63 67 72 78 80 75 74 72 66 63 60 60 59 55 53 50 46 37 28 26 28 24 24 21 15 11 10
58 52 56 58 57 55 52 43 40 39 40 42 45 47 49 52 59 65 67 66 65 64 63 67 67 60 55 53 52 49 45 40 35 31 26 23 22 21 19 15 11 9 10 12
65 74 71 68 65 63 55 48 43 41 41 42 42 41 47 54 62 66 66 64 58 50 50 53 54 52 47 46 44 40 35 30 26 21 18 14 15 16 16 15 13 9 7 8
69 70 67 64 61 53 50 45 42 39 38 36 37 40 45 50 54 55 56 54 52 49 40 39 40 40 40 39 35 29 25 22 18 14 10 9 12 15 15 12 9 7 6 4
76 76 70 63 55 49 43 42 40 35 33 32 36 39 41 44 46 46 45 42 41 39 38 37 35 34 33 32 28 22 18 14 10 7 5 6 9 9 7 6 3 2 2 2
83 77 71 63 55 48 45 40 34 29 28 30 33 36 37 38 38 37 35 32 30 29 30 30 30 29 26 23 22 17 11 7 4 0 3 4 5 5 5 5 4 3 5 6
80 70 63 56 49 44 39 32 26 23 22 25 30 32 32 32 30 28 26 25 23 24 24 23 24 22 19 16 14 13 9 5 4 5 5 6 5 5 5 5 4 6 10 13
67 61 53 46 41 36 31 24 17 15 18 22 25 26 26 26 24 22 19 23 24 24 22 20 19 17 17 17 15 11 8 7 4 1 1 2 4 6 9 12 16 19 21 23
55 51 47 42 35 30 23 15 12 13 16 18 19 20 21 21 20 20 19 19 20 20 20 19 19 18 18 19 19 19 17 14 13 12 11 12 14 18 21 22 22 21 19 16
45 44 40 35 29 22 16 12 10 11 13 14 15 18 18 16 17 18 18 18 19 19 20 21 22 23 23 22 23 23 22 21 19 19 20 21 22 21 19 18 16 16 17 20
39 36 33 29 22 17 13 10 10 10 11 12 13 13 13 13 15 17 17 20 21 23 23 24 25 26 26 26 26 24 22 23 23 23 22 21 20 20 20 21 22 24 27 29
37 31 25 20 16 13 11 11 10 11 11 12 13 12 12 14 16 19 20 22 24 26 26 27 28 28 28 28 27 27 28 27 26 25 24 23 24 25 28 30 32 35 38 42
Wind_Direction_500mb
56 53 108 166 176 179 193 211 190 196 173 200 201 183 168 148 131 110 78 45 24 12 3 354 347 345 343 342 341 338 337 335 333 331 330 329 328 326 322 317 311 307 305 302
137 61 50 169 178 183 171 147 109 156 230 218 157 143 148 147 125 82 55 31 14 4 355 353 351 346 342 336 333 331 329 328 326 325 325 325 323 321 321 321 318 313 309 306
188 114 75 276 207 185 177 184 145 197 192 149 151 161 174 164 138 81 40 17 3 0 355 348 341 337 337 333 330 328 326 325 324 322 321 319 318 318 318 316 314 312 311 311
148 129 199 230 61 150 181 190 210 122 150 158 168 184 179 180 166 115 50 17 1 351 343 336 331 329 329 328 326 323 321 319 320 319 318 317 316 315 315 314 314 313 311 308
154 197 310 241 215 158 168 250 207 167 157 167 153 163 213 184 163 137 10 351 347 341 338 335 331 327 325 323 321 319 317 317 317 317 316 316 316 316 314 312 312 312 311 310
137 139 210 239 263 140 94 274 192 187 156 154 152 156 244 170 169 262 310 312 316 321 325 328 327 325 322 320 318 314 312 310 310 311 311 311 311 311 312 311 310 312 313 314
166 184 284 224 187 145 107 236 161 164 150 151 149 143 157 171 227 284 297 307 314 317 320 322 321 318 315 313 313 310 308 306 306 308 309 310 308 308 309 308 308 308 307 309
121 113 260 172 140 168 172 136 137 136 144 147 146 151 170 219 274 303 306 308 312 312 313 316 318 316 316 316 313 311 310 309 308 305 305 308 308 307 308 308 307 307 307 307
180 202 22 171 146 180 157 150 155 160 162 172 179 228 291 303 308 308 308 307 307 308 309 311 315 314 312 314 311 310 311 310 308 305 303 303 303 304 306 308 308 308 310 310
103 193 168 164 147 151 146 154 162 169 176 206 264 283 292 300 303 304 304 305 307 309 310 311 314 312 311 311 310 309 307 310 308 304 302 300 301 303 303 304 305 306 308 308
275 91 133 179 171 165 159 162 168 188 236 271 286 291 293 294 297 300 303 306 308 309 309 309 309 308 307 307 305 303 303 304 305 303 301 301 302 307 302 301 302 304 306 307
212 174 165 190 187 187 190 188 219 261 275 280 281 284 287 292 296 300 303 305 304 304 304 307 308 309 309 307 302 300 299 300 302 303 303 302 303 304 301 299 302 299 298 305
165 177 189 202 203 198 196 235 250 250 256 264 272 281 289 294 298 300 302 304 305 306 308 310 310 309 310 308 305 302 300 300 300 300 301 300 301 300 298 296 291 291 298 304
204 190 175 185 195 202 230 230 238 248 254 265 276 286 292 295 298 301 305 308 308 308 310 311 310 310 309 307 304 302 300 299 299 299 299 299 296 290 286 284 275 281 285 303
220 219 227 216 219 218 214 233 243 244 255 269 279 283 289 295 300 305 307 307 306 307 308 307 307 310 308 307 306 304 304 302 301 299 296 293 288 283 277 269 273 279 268 251
201 209 224 231 225 219 230 247 241 244 256 267 276 284 291 298 302 307 309 310 309 309 310 309 309 312 312 311 310 309 308 306 305 301 296 291 287 272 261 255 261 256 228 202
203 212 221 227 227 233 247 241 243 249 262 271 279 287 294 298 302 305 305 306 307 309 310 308 311 314 316 315 315 316 315 314 312 303 298 297 275 252 240 233 200 173 146 130
238 243 241 247 245 242 235 237 242 254 261 270 280 288 295 302 305 305 305 306 309 311 309 310 313 315 318 319 319 317 317 319 316 304 291 266 236 218 204 194 190 179 149 145
226 228 233 236 238 232 224 230 245 254 263 273 285 295 301 303 303 303 303 306 309 314 316 316 318 321 324 325 324 321 320 321 316 300 268 235 215 202 196 193 191 184 165 159
220 218 219 220 218 220 230 239 245 251 265 281 293 300 303 304 304 303 304 308 311 318 325 327 329 329 330 332 330 325 325 319 309 281 230 207 204 200 191 185 178 162 103 72
213 214 213 214 218 225 234 237 239 252 269 283 296 301 303 303 304 303 303 306 308 314 320 324 330 333 337 341 341 335 335 339 343 296 141 153 155 146 133 123 112 70 26 1
206 206 210 216 222 225 225 227 237 252 273 290 296 299 301 300 300 301 304 306 310 315 317 320 326 328 332 338 341 337 337 3 60 87 103 113 114 103 71 34 346 317 311 308
206 208 211 213 214 212 214 217 230 253 275 287 292 296 295 295 295 299 302 300 303 306 306 310 314 314 316 316 316 316 314 309 301 286 92 40 11 336 315 306 302 299 299 300
198 197 198 195 197 200 205 216 240 267 283 291 293 291 289 286 285 286 288 288 291 292 292 298 300 300 304 303 304 303 303 300 296 294 297 306 308 302 297 295 297 297 297 299
181 182 181 184 188 193 202 219 242 268 279 282 282 281 277 275 277 281 284 286 288 290 291 294 299 300 298 297 298 298 296 296 302 310 308 300 294 291 289 290 293 298 303 305
170 173 173 175 182 192 204 220 241 255 262 263 265 267 270 276 281 284 285 286 289 290 292 293 294 294 295 294 292 294 301 306 301 297 294 292 289 289 291 293 294 293 295 298
169 170 170 172 178 185 202 218 223 224 231 239 243 250 260 272 281 287 290 290 291 292 293 292 291 291 291 293 298 297 293 292 291 289 287 287 288 290 290 290 292 294 295 297
Wind_Speed_850mb
7 8 5 9 14 20 21 30 17 16 18 37 23 15 26 21 21 18 15 15 19 22 25 28 32 37 43 48 53 55 56 58 61 63 63 63 61 58 55 56 58 59 61 63
5 4 9 3 6 13 5 7 10 10 7 11 11 25 21 18 13 14 15 18 21 26 33 42 47 48 47 49 52 57 60 63 66 69 71 71 72 72 70 65 63 64 63 64
8 3 8 10 16 14 8 6 13 13 12 17 8 15 16 16 11 8 10 16 22 28 31 34 38 43 46 50 54 57 61 64 66 70 73 75 78 78 76 75 74 72 68 68
5 3 8 7 5 8 13 9 14 6 12 20 21 18 15 14 15 8 8 12 17 22 24 29 35 40 44 48 53 58 63 67 71 76 78 80 82 83 82 82 78 76 77 75
8 5 8 5 9 13 14 14 17 11 15 19 19 10 8 22 14 7 4 11 17 21 26 30 38 42 46 48 52 58 62 65 69 74 78 80 81 82 82 84 83 79 75 76
7 7 12 7 2 13 11 10 12 25 20 31 28 6 7 39 10 1 10 18 24 29 34 40 46 54 57 59 61 64 67 70 72 74 77 80 81 81 78 76 79 80 84 80
7 6 14 13 12 20 12 13 13 18 30 34 10 9 21 28 6 14 21 27 34 40 46 52 57 62 63 64 65 69 72 75 75 77 79 80 82 80 78 77 78 78 79 77
6 5 17 31 12 20 10 15 25 22 19 16 13 12 18 17 15 21 28 36 44 53 59 61 61 65 70 71 71 74 75 77 76 76 78 78 78 79 80 82 82 81 79 77
15 11 2 41 8 18 23 37 27 22 16 13 9 5 11 20 28 34 38 45 52 60 69 71 69 68 72 71 74 77 79 80 78 78 76 75 75 78 81 80 78 80 78 78
6 4 12 23 24 30 33 27 23 22 22 13 13 21 31 39 45 50 52 57 63 69 74 79 74 72 71 75 78 82 85 85 82 82 81 79 75 73 76 76 75 73 70 68
1 6 20 15 23 33 28 30 27 18 14 20 29 36 43 47 48 53 59 63 67 71 76 79 80 83 84 82 84 88 89 87 86 82 80 81 82 75 71 67 64 63 56 49
9 35 16 30 40 39 37 30 17 21 28 32 34 37 41 46 50 55 61 65 71 76 79 79 79 80 80 79 83 85 88 87 84 82 80 79 78 75 60 57 49 36 33 30
15 30 28 22 39 53 44 29 28 27 28 29 31 35 42 49 54 60 67 71 74 76 74 77 80 80 74 75 79 81 81 82 83 81 79 72 65 57 57 43 31 26 24 22
30 36 27 45 45 52 36 29 27 27 28 31 35 39 45 53 61 65 68 73 77 81 82 81 81 79 75 74 75 77 77 76 75 75 68 60 49 42 40 36 25 21 19 12
44 48 44 47 42 34 34 31 35 35 35 35 38 44 51 56 61 67 71 77 82 82 79 77 76 71 68 66 67 68 68 69 64 61 52 41 35 34 32 27 24 22 16 8
53 51 44 40 39 41 41 43 44 38 36 39 44 49 51 56 60 63 67 72 78 80 75 74 72 66 63 60 60 59 55 53 50 46 37 28 26 28 24 24 21 15 11 10
58 52 56 58 57 55 52 43 40 39 40 42 45 47 49 52 59 65 67 66 65 64 63 67 67 60 55 53 52 49 45 40 35 31 26 23 22 21 19 15 11 9 10 12
65 74 71 68 65 63 55 48 43 41 41 42 42 41 47 54 62 66 66 64 58 50 50 53 54 52 47 46 44 40 35 30 26 21 18 14 15 16 16 15 13 9 7 8
69 70 67 64 61 53 50 45 42 39 38 36 37 40 45 50 54 55 56 54 52 49 40 39 40 40 40 39 35 29 25 22 18 14 10 9 12 15 15 12 9 7 6 4
76 76 70 63 55 49 43 42 40 35 33 32 36 39 41 44 46 46 45 42 41 39 38 37 35 34 33 32 28 22 18 14 10 7 5 6 9 9 7 6 3 2 2 2
83 77 71 63 55 48 45 40 34 29 28 30 33 36 37 38 38 37 35 32 30 29 30 30 30 29 26 23 22 17 11 7 4 0 3 4 5 5 5 5 4 3 5 6
80 70 63 56 49 44 39 32 26 23 22 25 30 32 32 32 30 28 26 25 23 24 24 23 24 22 19 16 14 13 9 5 4 5 5 6 5 5 5 5 4 6 10 13
67 61 53 46 41 36 31 24 17 15 18 22 25 26 26 26 24 22 19 23 24 24 22 20 19 17 17 17 15 11 8 7 4 1 1 2 4 6 9 12 16 19 21 23
55 51 47 42 35 30 23 15 12 13 16 18 19 20 21 21 20 20 19 19 20 20 20 19 19 18 18 19 19 19 17 14 13 12 11 12 14 18 21 22 22 21 19 16
45 44 40 35 29 22 16 12 10 11 13 14 15 18 18 16 17 18 18 18 19 19 20 21 22 23 23 22 23 23 22 21 19 19 20 21 22 21 19 18 16 16 17 20
39 36 33 29 22 17 13 10 10 10 11 12 13 13 13 13 15 17 17 20 21 23 23 24 25 26 26 26 26 24 22 23 23 23 22 21 20 20 20 21 22 24 27 29
37 31 25 20 16 13 11 11 10 11 11 12 13 12 12 14 16 19 20 22 24 26 26 27 28 28 28 28 27 27 28 27 26 25 24 23 24 25 28 30 32 35 38 42
Wind_Direction_850mb
56 53 108 166 176 179 193 211 190 196 173 200 201 183 168 148 131 110 78 45 24 12 3 354 347 345 343 342 341 338 337 335 333 331 330 329 328 326 322 317 311 307 305 302
137 61 50 169 178 183 171 147 109 156 230 218 157 143 148 147 125 82 55 31 14 4 355 353 351 346 342 336 333 331 329 328 326 325 325 325 323 321 321 321 318 313 309 306
188 114 75 276 207 185 177 184 145 197 192 149 151 161 174 164 138 81 40 17 3 0 355 348 341 337 337 333 330 328 326 325 324 322 321 319 318 318 318 316 314 312 311 311
148 129 199 230 61 150 181 190 210 122 150 158 168 184 179 180 166 115 50 17 1 351 343 336 331 329 329 328 326 323 321 319 320 319 318 317 316 315 315 314 314 313 311 308
154 197 310 241 215 158 168 250 207 167 157 167 153 163 213 184 163 137 10 351 347 341 338 335 331 327 325 323 321 319 317 317 317 317 316 316 316 316 314 312 312 312 311 310
137 139 210 239 263 140 94 274 192 187 156 154 152 156 244 170 169 262 310 312 316 321 325 328 327 325 322 320 318 314 312 310 310 311 311 311 311 311 312 311 310 312 313 314
166 184 284 224 187 145 107 236 161 164 150 151 149 143 157 171 227 284 297 307 314 317 320 322 321 318 315 313 313 310 308 306 306 308 309 310 308 308 309 308 308 308 307 309
121 113 260 172 140 168 172 136 137 136 144 147 146 151 170 219 274 303 306 308 312 312 313 316 318 316 316 316 313 311 310 309 308 305 305 308 308 307 308 308 307 307 307 307
180 202 22 171 146 180 157 150 155 160 162 172 179 228 291 303 308 308 308 307 307 308 309 311 315 314 312 314 311 310 311 310 308 305 303 303 303 304 306 308 308 308 310 310
103 193 168 164 147 151 146 154 162 169 176 206 264 283 292 300 303 304 304 305 307 309 310 311 314 312 311 311 310 309 307 310 308 304 302 300 301 303 303 304 305 306 308 308
275 91 133 179 171 165 159 162 168 188 236 271 286 291 293 294 297 300 303 306 308 309 309 309 309 308 307 307 305 303 303 304 305 303 301 301 302 307 302 301 302 304 306 307
212 174 165 190 187 187 190 188 219 261 275 280 281 284 287 292 296 300 303 305 304 304 304 307 308 309 309 307 302 300 299 300 302 303 303 302 303 304 301 299 302 299 298 305
165 177 189 202 203 198 196 235 250 250 256 264 272 281 289 294 298 300 302 304 305 306 308 310 310 309 310 308 305 302 300 300 300 300 301 300 301 300 298 296 291 291 298 304
204 190 175 185 195 202 230 230 238 248 254 265 276 286 292 295 298 301 305 308 308 308 310 311 310 310 309 307 304 302 300 299 299 299 299 299 296 290 286 284 275 281 285 303
220 219 227 216 219 218 214 233 243 244 255 269 279 283 289 295 300 305 307 307 306 307 308 307 307 310 308 307 306 304 304 302 301 299 296 293 288 283 277 269 273 279 268 251
201 209 224 231 225 219 230 247 241 244 256 267 276 284 291 298 302 307 309 310 309 309 310 309 309 312 312 311 310 309 308 306 305 301 296 291 287 272 261 255 261 256 228 202
203 212 221 227 227 233 247 241 243 249 262 271 279 287 294 298 302 305 305 306 307 309 310 308 311 314 316 315 315 316 315 314 312 303 298 297 275 252 240 233 200 173 146 130
238 243 241 247 245 242 235 237 242 254 261 270 280 288 295 302 305 305 305 306 309 311 309 310 313 315 318 319 319 317 317 319 316 304 291 266 236 218 204 194 190 179 149 145
226 228 233 236 238 232 224 230 245 254 263 273 285 295 301 303 303 303 303 306 309 314 316 316 318 321 324 325 324 321 320 321 316 300 268 235 215 202 196 193 191 184 165 159
220 218 219 220 218 220 230 239 245 251 265 281 293 300 303 304 304 303 304 308 311 318 325 327 329 329 330 332 330 325 325 319 309 281 230 207 204 200 191 185 178 162 103 72
213 214 213 214 218 225 234 237 239 252 269 283 296 301 303 303 304 303 303 306 308 314 320 324 330 333 337 341 341 335 335 339 343 296 141 153 155 146 133 123 112 70 26 1
206 206 210 216 222 225 225 227 237 252 273 290 296 299 301 300 300 301 304 306 310 315 317 320 326 328 332 338 341 337 337 3 60 87 103 113 114 103 71 34 346 317 311 308
206 208 211 213 214 212 214 217 230 253 275 287 292 296 295 295 295 299 302 300 303 306 306 310 314 314 316 316 316 316 314 309 301 286 92 40 11 336 315 306 302 299 299 300
198 197 198 195 197 200 205 216 240 267 283 291 293 291 289 286 285 286 288 288 291 292 292 298 300 300 304 303 304 303 303 300 296 294 297 306 308 302 297 295 297 297 297 299
181 182 181 184 188 193 202 219 242 268 279 282 282 281 277 275 277 281 284 286 288 290 291 294 299 300 298 297 298 298 296 296 302 310 308 300 294 291 289 290 293 298 303 305
170 173 173 175 182 192 204 220 241 255 262 263 265 267 270 276 281 284 285 286 289 290 292 293 294 294 295 294 292 294 301 306 301 297 294 292 289 289 291 293 294 293 295 298
169 170 170 172 178 185 202 218 223 224 231 239 243 250 260 272 281 287 290 290 291 292 293 292 291 291 291 293 298 297 293 292 291 289 287 287 288 290 290 290 292 294 295 297